Total_Precipitation_Accumulation
0.70 0.72 0.78 0.88 0.86 0.85 0.82 0.77 0.73 0.74 0.82 0.84 0.83 0.88 0.92 0.94 0.96 1.02 1.01 0.97 0.95 0.92 0.89 0.90 0.91 0.94 1.01 1.01 0.97 0.94 0.91 1.00 1.02 0.53 0.38 0.42 0.52 0.56 0.56 0.53 0.48 0.47 0.50
0.70 0.72 0.74 0.85 0.93 0.91 0.95 0.94 0.83 0.76 0.77 0.84 0.87 0.89 0.97 1.01 1.00 1.04 1.08 1.09 1.14 1.10 1.01 0.97 0.97 0.99 1.05 1.08 1.15 1.12 1.03 0.96 1.03 0.82 0.53 0.51 0.61 0.67 0.69 0.67 0.62 0.56 0.52
0.69 0.73 0.76 0.80 0.89 0.92 0.94 1.02 1.01 0.98 1.00 0.99 1.03 1.06 1.10 1.14 1.17 1.19 1.22 1.27 1.33 1.33 1.27 1.22 1.12 1.09 1.14 1.12 1.17 1.19 1.12 1.04 1.01 0.97 0.75 0.64 0.67 0.68 0.76 0.78 0.76 0.73 0.67
0.67 0.78 0.79 0.82 0.84 0.87 0.93 0.98 1.11 1.19 1.27 1.32 1.30 1.30 1.31 1.36 1.48 1.56 1.55 1.54 1.51 1.47 1.44 1.41 1.35 1.28 1.26 1.26 1.28 1.23 1.18 1.19 1.14 1.11 0.97 0.82 0.80 0.75 0.84 0.90 0.93 0.89 0.83
0.63 0.73 0.78 0.84 0.94 1.01 1.04 1.06 1.11 1.24 1.33 1.35 1.38 1.40 1.38 1.55 1.85 1.96 1.81 1.61 1.48 1.41 1.35 1.34 1.38 1.47 1.48 1.52 1.59 1.48 1.38 1.42 1.36 1.30 1.15 0.96 0.86 0.87 0.93 0.94 1.05 1.01 0.97
0.60 0.67 0.74 0.88 0.99 1.12 1.15 1.20 1.21 1.27 1.36 1.37 1.35 1.37 1.35 1.45 1.86 1.98 1.62 1.30 1.23 1.28 1.28 1.20 1.19 1.35 1.42 1.49 1.62 1.62 1.63 1.67 1.66 1.56 1.39 1.20 0.95 0.90 0.97 1.13 1.26 1.35 1.27
0.52 0.63 0.69 0.83 0.95 1.05 1.09 1.13 1.16 1.11 1.09 1.19 1.26 1.22 1.18 1.26 1.60 1.70 1.40 1.01 0.92 1.01 1.06 1.05 1.02 1.08 1.27 1.24 1.33 1.38 1.45 1.58 1.72 1.77 1.73 1.42 1.17 1.05 1.23 1.39 1.41 1.48 1.40
0.46 0.59 0.62 0.72 0.86 0.92 0.99 1.03 1.05 0.98 0.96 1.06 1.09 1.01 0.94 0.99 1.31 1.44 1.24 0.89 0.84 0.89 0.94 0.95 0.93 0.95 1.10 1.28 1.33 1.22 1.14 1.25 1.48 1.64 1.77 1.60 1.41 1.39 1.60 1.82 1.87 1.84 1.69
0.41 0.51 0.56 0.64 0.80 0.81 0.87 0.98 0.97 0.98 0.96 0.94 0.93 0.88 0.81 0.82 1.08 1.36 1.24 0.85 0.88 0.89 0.90 0.96 0.91 0.85 1.12 1.32 1.30 1.21 1.09 1.09 1.21 1.49 1.66 1.70 1.72 1.81 1.99 2.27 2.41 2.44 2.27
0.40 0.47 0.50 0.55 0.69 0.70 0.72 0.79 0.83 0.86 0.88 0.89 0.87 0.81 0.78 0.75 0.92 1.29 1.32 0.92 0.89 0.87 0.88 0.94 1.06 1.05 1.19 1.26 1.18 1.21 1.23 1.08 0.97 1.05 1.15 1.24 1.28 1.37 1.69 1.97 2.23 2.46 2.40
0.35 0.40 0.45 0.50 0.57 0.59 0.63 0.66 0.71 0.76 0.80 0.85 0.85 0.78 0.71 0.71 0.79 1.07 1.41 1.15 0.95 0.87 0.87 0.92 0.96 1.11 1.15 1.21 1.24 1.22 1.32 1.17 0.98 1.04 1.07 1.06 1.09 1.18 1.35 1.59 1.94 2.26 2.45
0.32 0.38 0.42 0.47 0.50 0.53 0.58 0.63 0.65 0.73 0.83 0.86 0.83 0.81 0.74 0.70 0.76 0.94 1.21 1.32 1.16 0.96 0.90 0.80 0.83 1.00 1.05 1.15 1.17 1.22 1.26 1.21 1.13 1.14 1.13 1.09 1.10 1.17 1.27 1.39 1.62 1.88 2.06
0.32 0.37 0.43 0.47 0.45 0.53 0.59 0.66 0.69 0.75 0.84 0.86 0.82 0.80 0.78 0.77 0.83 1.02 1.04 1.09 1.18 1.05 0.99 1.01 0.93 0.98 1.01 0.98 1.03 1.13 1.13 1.07 1.15 1.16 1.06 1.01 1.01 1.10 1.15 1.25 1.34 1.54 1.74
0.32 0.35 0.41 0.49 0.49 0.50 0.56 0.65 0.70 0.74 0.88 0.94 0.90 0.87 0.80 0.78 0.90 1.12 1.07 1.00 1.09 1.09 1.07 1.05 1.02 1.02 1.01 0.96 0.96 0.96 0.94 0.99 1.08 1.07 0.96 0.88 0.89 0.99 1.12 1.23 1.34 1.44 1.63
0.31 0.34 0.40 0.50 0.54 0.51 0.54 0.60 0.67 0.70 0.91 1.08 1.01 1.01 0.98 0.99 1.08 1.29 1.29 1.22 1.24 1.25 1.24 1.22 1.14 1.10 1.08 0.99 0.92 0.88 0.90 0.96 1.00 0.94 0.91 0.90 0.90 0.96 1.06 1.14 1.32 1.43 1.57
0.36 0.39 0.43 0.51 0.54 0.53 0.54 0.58 0.67 0.70 0.77 0.81 0.89 0.98 0.96 1.06 1.12 1.09 1.16 1.21 1.24 1.28 1.31 1.26 1.07 0.97 0.95 0.90 0.88 0.87 0.85 0.84 0.83 0.87 0.90 0.90 0.92 0.97 1.02 1.06 1.23 1.40 1.46
0.40 0.44 0.48 0.52 0.54 0.55 0.53 0.56 0.63 0.62 0.64 0.68 0.75 0.83 0.95 1.04 0.99 0.98 1.04 1.06 1.08 1.07 1.05 0.95 0.88 0.87 0.85 0.83 0.82 0.82 0.82 0.76 0.76 0.83 0.85 0.85 0.89 0.95 0.98 1.02 1.09 1.22 1.30
0.41 0.47 0.52 0.53 0.54 0.54 0.52 0.53 0.59 0.64 0.70 0.73 0.78 0.84 0.92 0.99 0.98 0.98 1.04 1.09 1.08 0.99 0.87 0.83 0.82 0.81 0.81 0.82 0.83 0.83 0.80 0.78 0.81 0.84 0.85 0.85 0.89 0.97 0.98 0.96 1.00 1.11 1.19
0.44 0.48 0.53 0.54 0.54 0.50 0.50 0.52 0.54 0.58 0.66 0.76 0.83 0.90 0.97 0.97 0.96 0.97 0.98 0.94 0.93 0.89 0.84 0.80 0.77 0.77 0.80 0.84 0.86 0.84 0.85 0.84 0.82 0.85 0.85 0.84 0.86 0.93 0.94 0.87 0.90 1.03 1.15
0.48 0.57 0.62 0.59 0.56 0.53 0.52 0.55 0.57 0.60 0.66 0.74 0.83 0.89 1.00 1.05 0.99 0.97 0.89 0.84 0.89 0.89 0.86 0.84 0.79 0.77 0.83 0.88 0.92 0.92 0.92 0.87 0.84 0.85 0.81 0.78 0.79 0.84 0.86 0.83 0.85 0.93 1.00
0.53 0.57 0.63 0.62 0.60 0.59 0.61 0.61 0.62 0.67 0.72 0.74 0.78 0.88 1.12 1.14 0.98 0.84 0.80 0.78 0.83 0.87 0.87 0.86 0.85 0.85 0.87 0.91 0.91 0.90 0.91 0.86 0.83 0.83 0.83 0.79 0.78 0.79 0.78 0.80 0.81 0.83 0.89
0.57 0.58 0.57 0.59 0.64 0.67 0.70 0.69 0.69 0.71 0.73 0.77 0.79 0.84 0.94 0.89 0.82 0.77 0.75 0.75 0.76 0.80 0.85 0.92 0.90 0.86 0.88 0.93 0.95 0.92 0.87 0.81 0.75 0.76 0.79 0.77 0.76 0.75 0.75 0.76 0.76 0.79 0.83
0.60 0.62 0.61 0.61 0.65 0.73 0.72 0.66 0.69 0.73 0.77 0.81 0.82 0.83 0.83 0.82 0.79 0.76 0.76 0.76 0.75 0.74 0.77 0.86 0.88 0.82 0.79 0.81 0.86 0.90 0.89 0.80 0.72 0.73 0.81 0.80 0.75 0.71 0.72 0.73 0.70 0.74 0.79
0.61 0.62 0.64 0.67 0.70 0.70 0.71 0.70 0.71 0.74 0.81 0.87 0.87 0.86 0.85 0.84 0.81 0.75 0.72 0.73 0.73 0.72 0.74 0.79 0.81 0.77 0.74 0.76 0.77 0.77 0.77 0.78 0.80 0.80 0.79 0.80 0.76 0.71 0.72 0.73 0.71 0.70 0.74
0.60 0.62 0.66 0.72 0.76 0.75 0.77 0.76 0.76 0.78 0.83 0.88 0.90 0.88 0.84 0.81 0.77 0.74 0.70 0.71 0.73 0.73 0.71 0.73 0.76 0.75 0.72 0.70 0.72 0.74 0.82 0.90 0.96 1.03 1.10 1.09 0.95 0.81 0.78 0.78 0.74 0.70 0.72
0.59 0.62 0.67 0.75 0.81 0.81 0.82 0.83 0.80 0.81 0.88 0.89 0.87 0.87 0.85 0.83 0.79 0.77 0.76 0.75 0.78 0.77 0.73 0.70 0.69 0.73 0.73 0.70 0.71 0.78 0.86 0.91 1.03 1.23 1.41 1.43 1.17 0.90 0.80 0.81 0.74 0.72 0.74